Location: Bonningues
(50.7927°N, 2.0150°E)
Time: 05:04:27
(UTC+00:00)

ATLAS 3B R/B - Pass Details

Date: 08 August 2020
Orbit: 1016 x 1179 km, 63.8° (Epoch: 17 September)

Event Time Altitude Azimuth Distance (km) Brightness Sun altitude
Exits shadow 22:21:15 30° 125° (SE) 1,743 3.3 -20.2°
Maximum altitude 22:21:53 30° 115° (ESE) 1,726 3.4 -20.2°
Drops below altitude 10° 22:27:30 10° 56° (ENE) 2,829 5.0 -20.6°
Sets 22:30:26 0° 47° (NE) 3,801 5.9 -20.7°
